Location: Asar Burnu
(36.5203°N, 30.5523°E)
Time: 03:57:07
(UTC+00:00)

Cosmos 1606 Rocket - Pass Details

Date: 04 August 2024
Orbit: 599 x 627 km, 82.5° (Epoch: 10 September)

Event Time Altitude Azimuth Distance (km) Brightness Sun altitude
Rises 18:29:42 0° 346° (NNW) 2,854 7.8 -16.5°
Reaches altitude 10° 18:31:57 10° 341° (NNW) 1,949 6.9 -16.8°
Maximum altitude 18:36:07 49° 267° (W) 776 4.3 -17.5°
Enters shadow 18:40:00 12° 193° (SSW) 1,842 5.7 -18.1°
